UAL2318 KLAX-CYVR

Flight info

Callsign UAL2318
Flight time 2h 37m
Altitude 38000
Route SUMMR2 SCTRR DCT SNS J126 SAC DCT LMT J65 SEA DCT PAE GRIZZ9
Aircraft B38M/M-SDE1FGHILORVWXY/HB1

Departure

Time 2026-05-07 00:04
Airport Los Angeles International Airport (KLAX)

Arrival

Time 2026-05-07 02:41
Airport Vancouver International Airport (CYVR)
Time Latitude Longitude Altitude Speed Heading
2026-05-06 23:35 33.94154 -118.39892 95 ft 0 kts 284°
2026-05-06 23:54 33.94150 -118.39874 96 ft 4 kts 284°
2026-05-06 23:54 33.94146 -118.39850 95 ft 4 kts 265°
2026-05-06 23:54 33.94153 -118.39835 95 ft 4 kts 178°
2026-05-06 23:55 33.94143 -118.39833 95 ft 4 kts 173°
2026-05-06 23:55 33.94116 -118.39829 97 ft 4 kts 173°
2026-05-06 23:55 33.94089 -118.39825 97 ft 4 kts 173°
2026-05-06 23:55 33.94069 -118.39825 96 ft 4 kts 191°
2026-05-06 23:56 33.94044 -118.39828 97 ft 3 kts 174°
2026-05-06 23:56 33.94040 -118.39827 96 ft 0 kts 173°
2026-05-06 23:59 33.94028 -118.39826 97 ft 3 kts 173°
2026-05-06 23:59 33.93988 -118.39819 97 ft 8 kts 168°
2026-05-06 23:59 33.93916 -118.39800 97 ft 12 kts 161°
2026-05-07 00:00 33.93900 -118.39752 98 ft 6 kts 80°
2026-05-07 00:00 33.93909 -118.39688 98 ft 10 kts 81°
2026-05-07 00:00 33.93919 -118.39592 97 ft 13 kts 83°
2026-05-07 00:00 33.93928 -118.39513 98 ft 16 kts 82°
2026-05-07 00:01 33.93949 -118.39310 96 ft 21 kts 83°
2026-05-07 00:01 33.93967 -118.39130 98 ft 22 kts 83°
2026-05-07 00:01 33.93986 -118.38937 98 ft 24 kts 83°
2026-05-07 00:01 33.94008 -118.38730 97 ft 26 kts 83°
2026-05-07 00:02 33.94030 -118.38517 98 ft 23 kts 83°
2026-05-07 00:02 33.94050 -118.38331 99 ft 23 kts 83°
2026-05-07 00:02 33.94069 -118.38144 96 ft 17 kts 83°
2026-05-07 00:02 33.94077 -118.38041 95 ft 11 kts 95°
2026-05-07 00:03 33.94023 -118.37999 96 ft 11 kts 172°
2026-05-07 00:03 33.93982 -118.38017 96 ft 3 kts 263°
2026-05-07 00:03 33.93982 -118.38020 96 ft 0 kts 264°
2026-05-07 00:03 33.93982 -118.38024 98 ft 2 kts 264°
2026-05-07 00:04 33.93964 -118.38212 101 ft 56 kts 263°
2026-05-07 00:04 33.93889 -118.38961 98 ft 121 kts 262°
2026-05-07 00:04 33.93785 -118.40133 293 ft 153 kts 263°
2026-05-07 00:04 33.93697 -118.41447 882 ft 162 kts 263°
2026-05-07 00:05 33.93586 -118.42830 1626 ft 171 kts 264°
2026-05-07 00:05 33.93427 -118.44371 2232 ft 199 kts 264°
2026-05-07 00:05 33.93244 -118.46132 2581 ft 231 kts 263°
2026-05-07 00:05 33.93027 -118.48152 3471 ft 251 kts 264°
2026-05-07 00:06 33.92834 -118.50300 4479 ft 263 kts 265°
2026-05-07 00:06 33.92677 -118.52494 5658 ft 260 kts 269°
2026-05-07 00:06 33.92524 -118.54661 6759 ft 268 kts 266°
2026-05-07 00:06 33.92303 -118.56967 7436 ft 286 kts 266°
2026-05-07 00:07 33.92081 -118.59408 8274 ft 296 kts 266°
2026-05-07 00:07 33.91864 -118.61877 9329 ft 299 kts 267°
2026-05-07 00:07 33.91786 -118.64409 10200 ft 306 kts 274°
2026-05-07 00:07 33.91795 -118.67045 10809 ft 324 kts 273°
2026-05-07 00:08 33.91790 -118.69848 11271 ft 345 kts 272°
2026-05-07 00:08 33.91775 -118.72761 11772 ft 360 kts 272°
2026-05-07 00:08 33.91752 -118.75833 12463 ft 369 kts 272°
2026-05-07 00:08 33.91727 -118.78937 13313 ft 373 kts 272°
2026-05-07 00:09 33.91702 -118.82082 14070 ft 378 kts 272°
2026-05-07 00:09 33.91777 -118.85258 14779 ft 381 kts 275°
2026-05-07 00:09 33.91874 -118.88469 15502 ft 385 kts 275°
2026-05-07 00:09 33.91965 -118.91712 16204 ft 389 kts 275°
2026-05-07 00:10 33.92053 -118.94980 16900 ft 393 kts 275°
2026-05-07 00:10 33.92141 -118.98284 17581 ft 396 kts 275°
2026-05-07 00:10 33.92609 -119.01509 18242 ft 393 kts 293°
2026-05-07 00:10 33.93804 -119.04403 18786 ft 392 kts 304°
2026-05-07 00:11 33.95200 -119.07245 19353 ft 396 kts 304°
2026-05-07 00:11 33.96632 -119.10099 19947 ft 399 kts 305°
2026-05-07 00:11 33.98087 -119.12962 20524 ft 402 kts 305°
2026-05-07 00:11 33.99561 -119.15838 21092 ft 405 kts 306°
2026-05-07 00:12 34.01264 -119.18526 21622 ft 402 kts 320°
2026-05-07 00:12 34.03446 -119.20598 22140 ft 401 kts 327°
2026-05-07 00:12 34.05706 -119.22611 22648 ft 405 kts 327°
2026-05-07 00:12 34.07221 -119.23941 23019 ft 407 kts 328°
2026-05-07 00:13 34.09521 -119.25944 23509 ft 410 kts 328°
2026-05-07 00:13 34.11846 -119.27954 23958 ft 413 kts 328°
2026-05-07 00:13 34.14189 -119.29974 24408 ft 416 kts 328°
2026-05-07 00:13 34.16551 -119.32010 24852 ft 418 kts 328°
2026-05-07 00:14 34.18923 -119.34055 25293 ft 420 kts 328°
2026-05-07 00:14 34.21312 -119.36116 25710 ft 423 kts 328°
2026-05-07 00:14 34.23713 -119.38188 26137 ft 425 kts 328°
2026-05-07 00:14 34.26130 -119.40277 26558 ft 428 kts 328°
2026-05-07 00:15 34.28550 -119.42369 26969 ft 430 kts 328°
2026-05-07 00:15 34.30988 -119.44478 27374 ft 432 kts 328°
2026-05-07 00:15 34.33442 -119.46602 27784 ft 435 kts 328°
2026-05-07 00:15 34.35906 -119.48737 28179 ft 437 kts 328°
2026-05-07 00:16 34.38386 -119.50887 28564 ft 440 kts 328°
2026-05-07 00:16 34.40868 -119.53066 28949 ft 443 kts 326°
2026-05-07 00:16 34.43302 -119.55378 29313 ft 445 kts 325°
2026-05-07 00:16 34.45716 -119.57661 29692 ft 447 kts 326°
2026-05-07 00:17 34.48173 -119.59976 30040 ft 449 kts 325°
2026-05-07 00:17 34.50648 -119.62306 30369 ft 452 kts 326°
2026-05-07 00:17 34.53131 -119.64645 30668 ft 454 kts 326°
2026-05-07 00:17 34.55637 -119.67008 31026 ft 455 kts 326°
2026-05-07 00:18 34.58134 -119.69365 31424 ft 455 kts 326°
2026-05-07 00:18 34.60636 -119.71727 31850 ft 454 kts 326°
2026-05-07 00:18 34.63129 -119.74083 32276 ft 453 kts 326°
2026-05-07 00:18 34.65616 -119.76437 32691 ft 453 kts 326°
2026-05-07 00:19 34.68104 -119.78790 33140 ft 452 kts 326°
2026-05-07 00:19 34.70582 -119.81137 33551 ft 451 kts 326°
2026-05-07 00:19 34.73027 -119.83454 33975 ft 451 kts 326°
2026-05-07 00:19 34.75498 -119.85800 34335 ft 450 kts 326°
2026-05-07 00:20 34.77964 -119.88141 34644 ft 450 kts 326°
2026-05-07 00:20 34.80438 -119.90492 34955 ft 450 kts 326°
2026-05-07 00:20 34.82901 -119.92833 35290 ft 449 kts 326°
2026-05-07 00:20 34.85363 -119.95177 35631 ft 448 kts 326°
2026-05-07 00:21 34.87814 -119.97512 35959 ft 447 kts 326°
2026-05-07 00:21 34.90258 -119.99841 36241 ft 446 kts 326°
2026-05-07 00:21 34.92701 -120.02177 36537 ft 445 kts 326°
2026-05-07 00:21 34.95136 -120.04499 36772 ft 445 kts 325°
2026-05-07 00:22 34.97545 -120.06800 37053 ft 444 kts 326°
2026-05-07 00:22 34.99978 -120.09124 37292 ft 444 kts 326°
2026-05-07 00:22 35.02409 -120.11449 37557 ft 443 kts 326°
2026-05-07 00:22 35.04838 -120.13774 37809 ft 443 kts 326°
2026-05-07 00:23 35.07258 -120.16094 38038 ft 442 kts 326°
2026-05-07 00:23 35.09682 -120.18420 38144 ft 443 kts 326°
2026-05-07 00:23 35.14513 -120.23057 38110 ft 440 kts 326°
2026-05-07 00:24 35.19355 -120.27559 38093 ft 440 kts 327°
2026-05-07 00:24 35.24260 -120.32039 38157 ft 440 kts 327°
2026-05-07 00:25 35.29174 -120.36549 38106 ft 440 kts 327°
2026-05-07 00:25 35.34069 -120.41045 38093 ft 440 kts 327°
2026-05-07 00:26 35.38971 -120.45556 38108 ft 441 kts 327°
2026-05-07 00:26 35.43849 -120.50051 38113 ft 441 kts 327°
2026-05-07 00:27 35.48744 -120.54569 38108 ft 440 kts 327°
2026-05-07 00:27 35.53667 -120.59036 38102 ft 439 kts 328°
2026-05-07 00:28 35.58638 -120.63412 38100 ft 439 kts 328°
2026-05-07 00:28 35.63603 -120.67804 38096 ft 439 kts 328°
2026-05-07 00:29 35.68562 -120.72197 38097 ft 439 kts 328°
2026-05-07 00:30 35.78436 -120.80967 38101 ft 439 kts 328°
2026-05-07 00:30 35.83380 -120.85369 38103 ft 438 kts 327°
2026-05-07 00:31 35.88306 -120.89762 38096 ft 438 kts 327°
2026-05-07 00:31 35.93245 -120.94172 38096 ft 438 kts 327°
2026-05-07 00:32 35.98185 -120.98591 38095 ft 439 kts 327°
2026-05-07 00:32 36.03122 -121.03015 38096 ft 438 kts 327°
2026-05-07 00:33 36.08056 -121.07441 38099 ft 438 kts 327°
2026-05-07 00:33 36.12953 -121.11843 38104 ft 438 kts 327°
2026-05-07 00:34 36.17872 -121.16271 38110 ft 437 kts 327°
2026-05-07 00:34 36.22784 -121.20699 38117 ft 436 kts 327°
2026-05-07 00:35 36.27692 -121.25131 38108 ft 437 kts 326°
2026-05-07 00:35 36.32607 -121.29576 38122 ft 438 kts 326°
2026-05-07 00:36 36.37530 -121.34036 38130 ft 438 kts 326°
2026-05-07 00:36 36.42448 -121.38499 38133 ft 438 kts 326°
2026-05-07 00:37 36.47363 -121.42966 38142 ft 438 kts 326°
2026-05-07 00:37 36.52271 -121.47434 38142 ft 436 kts 326°
2026-05-07 00:38 36.57167 -121.51896 38135 ft 436 kts 326°
2026-05-07 00:38 36.62067 -121.56369 38138 ft 437 kts 326°
2026-05-07 00:39 36.67433 -121.59622 38152 ft 428 kts 352°
2026-05-07 00:39 36.73374 -121.59974 38141 ft 430 kts
2026-05-07 00:40 36.79323 -121.59918 38138 ft 430 kts
2026-05-07 00:40 36.85311 -121.59773 38119 ft 430 kts
2026-05-07 00:41 36.91299 -121.59609 38115 ft 430 kts
2026-05-07 00:41 36.97273 -121.59441 38134 ft 430 kts
2026-05-07 00:42 37.03262 -121.59270 38125 ft 430 kts
2026-05-07 00:42 37.09247 -121.59100 38132 ft 431 kts
2026-05-07 00:43 37.15240 -121.58928 38129 ft 431 kts
2026-05-07 00:43 37.21202 -121.58757 38123 ft 431 kts
2026-05-07 00:44 37.27192 -121.58585 38124 ft 431 kts
2026-05-07 00:44 37.33201 -121.58413 38122 ft 431 kts
2026-05-07 00:45 37.39199 -121.58240 38117 ft 431 kts
2026-05-07 00:45 37.45200 -121.58067 38116 ft 431 kts
2026-05-07 00:46 37.51206 -121.57894 38100 ft 432 kts
2026-05-07 00:46 37.57218 -121.57719 38093 ft 432 kts
2026-05-07 00:47 37.63221 -121.57545 38097 ft 432 kts
2026-05-07 00:47 37.69199 -121.57372 38098 ft 432 kts
2026-05-07 00:48 37.75215 -121.57197 38091 ft 432 kts
2026-05-07 00:48 37.81229 -121.57022 38088 ft 432 kts
2026-05-07 00:49 37.87236 -121.56847 38095 ft 432 kts
2026-05-07 00:49 37.93253 -121.56671 38099 ft 432 kts
2026-05-07 00:50 37.99230 -121.56496 38107 ft 432 kts
2026-05-07 00:50 38.05247 -121.56319 38106 ft 432 kts
2026-05-07 00:51 38.11259 -121.56143 38109 ft 432 kts 360°
2026-05-07 00:51 38.17286 -121.55966 38108 ft 432 kts 360°
2026-05-07 00:52 38.23305 -121.55788 38108 ft 432 kts 360°
2026-05-07 00:52 38.29320 -121.55611 38104 ft 432 kts 360°
2026-05-07 00:53 38.35306 -121.55434 38102 ft 432 kts 360°
2026-05-07 00:53 38.41324 -121.55256 38097 ft 432 kts 360°
2026-05-07 00:54 38.47329 -121.55388 38110 ft 431 kts 356°
2026-05-07 00:54 38.53341 -121.55685 38102 ft 431 kts 356°
2026-05-07 00:55 38.59340 -121.55956 38102 ft 432 kts 356°
2026-05-07 00:55 38.65347 -121.56225 38102 ft 432 kts 356°
2026-05-07 00:56 38.71313 -121.56493 38092 ft 432 kts 356°
2026-05-07 00:56 38.77322 -121.56763 38092 ft 431 kts 356°
2026-05-07 00:57 38.83331 -121.57034 38092 ft 431 kts 356°
2026-05-07 00:57 38.89331 -121.57304 38100 ft 431 kts 356°
2026-05-07 00:58 38.95332 -121.57576 38102 ft 431 kts 356°
2026-05-07 00:58 39.01330 -121.57847 38101 ft 431 kts 356°
2026-05-07 00:59 39.10331 -121.58256 38104 ft 431 kts 355°
2026-05-07 01:00 39.15317 -121.58482 38097 ft 431 kts 355°
2026-05-07 01:00 39.22286 -121.58800 38102 ft 431 kts 355°
2026-05-07 01:01 39.28277 -121.59073 38107 ft 431 kts 355°
2026-05-07 01:01 39.33302 -121.59303 38097 ft 431 kts 355°
2026-05-07 01:02 39.39261 -121.59576 38102 ft 431 kts 355°
2026-05-07 01:02 39.45255 -121.59850 38101 ft 431 kts 355°
2026-05-07 01:03 39.51245 -121.60126 38100 ft 430 kts 355°
2026-05-07 01:03 39.57236 -121.60401 38103 ft 430 kts 355°
2026-05-07 01:04 39.63224 -121.60677 38109 ft 430 kts 355°
2026-05-07 01:04 39.69211 -121.60954 38110 ft 430 kts 355°
2026-05-07 01:05 39.75170 -121.61229 38115 ft 431 kts 355°
2026-05-07 01:05 39.81161 -121.61506 38109 ft 430 kts 355°
2026-05-07 01:06 39.87146 -121.61784 38116 ft 430 kts 355°
2026-05-07 01:06 39.93132 -121.62062 38111 ft 430 kts 355°
2026-05-07 01:07 39.99063 -121.62338 38146 ft 429 kts 355°
2026-05-07 01:07 40.05051 -121.62618 38129 ft 430 kts 354°
2026-05-07 01:08 40.11028 -121.62897 38132 ft 429 kts 354°
2026-05-07 01:08 40.17007 -121.63177 38131 ft 429 kts 354°
2026-05-07 01:09 40.22955 -121.63456 38113 ft 430 kts 354°
2026-05-07 01:09 40.28934 -121.63737 38126 ft 430 kts 354°
2026-05-07 01:10 40.34917 -121.64019 38122 ft 430 kts 354°
2026-05-07 01:10 40.40899 -121.64301 38124 ft 430 kts 354°
2026-05-07 01:11 40.46869 -121.64582 38119 ft 428 kts 354°
2026-05-07 01:11 40.52833 -121.64864 38122 ft 428 kts 354°
2026-05-07 01:12 40.58753 -121.65145 38121 ft 428 kts 354°
2026-05-07 01:12 40.64693 -121.65428 38104 ft 428 kts 354°
2026-05-07 01:13 40.70650 -121.65711 38104 ft 427 kts 354°
2026-05-07 01:13 40.76593 -121.65994 38096 ft 427 kts 354°
2026-05-07 01:14 40.82545 -121.66278 38092 ft 428 kts 354°
2026-05-07 01:14 40.88456 -121.66560 38101 ft 427 kts 354°
2026-05-07 01:15 40.94383 -121.66844 38074 ft 426 kts 354°
2026-05-07 01:15 41.00311 -121.67130 38117 ft 427 kts 354°
2026-05-07 01:16 41.06253 -121.67415 38072 ft 426 kts 354°
2026-05-07 01:16 41.12186 -121.67701 38088 ft 427 kts 354°
2026-05-07 01:17 41.18132 -121.67987 38083 ft 427 kts 354°
2026-05-07 01:17 41.24069 -121.68274 38080 ft 426 kts 354°
2026-05-07 01:18 41.30001 -121.68562 38083 ft 426 kts 354°
2026-05-07 01:18 41.35896 -121.68848 38103 ft 426 kts 355°
2026-05-07 01:19 41.41821 -121.69136 38099 ft 426 kts 355°
2026-05-07 01:19 41.47744 -121.69424 38094 ft 425 kts 355°
2026-05-07 01:20 41.53668 -121.69713 38096 ft 426 kts 355°
2026-05-07 01:20 41.59593 -121.70003 38107 ft 426 kts 355°
2026-05-07 01:21 41.65519 -121.70293 38100 ft 426 kts 355°
2026-05-07 01:21 41.71456 -121.70584 38097 ft 426 kts 355°
2026-05-07 01:22 41.77388 -121.70876 38085 ft 426 kts 355°
2026-05-07 01:22 41.83276 -121.71166 38105 ft 426 kts 355°
2026-05-07 01:23 41.89205 -121.71457 38114 ft 425 kts 356°
2026-05-07 01:23 41.95107 -121.71749 38124 ft 424 kts 356°
2026-05-07 01:24 42.01004 -121.72041 38139 ft 424 kts 356°
2026-05-07 01:24 42.06904 -121.72333 38155 ft 424 kts 356°
2026-05-07 01:25 42.12802 -121.72627 38154 ft 424 kts 356°
2026-05-07 01:25 42.18640 -121.73157 38162 ft 423 kts 354°
2026-05-07 01:26 42.24514 -121.73759 38088 ft 422 kts 354°
2026-05-07 01:26 42.30358 -121.74349 38077 ft 421 kts 354°
2026-05-07 01:27 42.36207 -121.74941 38085 ft 421 kts 354°
2026-05-07 01:27 42.42043 -121.75532 38087 ft 420 kts 354°
2026-05-07 01:28 42.47872 -121.76123 38092 ft 420 kts 354°
2026-05-07 01:28 42.53703 -121.76717 38087 ft 420 kts 354°
2026-05-07 01:29 42.59533 -121.77310 38095 ft 419 kts 354°
2026-05-07 01:29 42.65342 -121.77904 38087 ft 418 kts 354°
2026-05-07 01:30 42.71151 -121.78497 38086 ft 418 kts 354°
2026-05-07 01:30 42.76918 -121.79087 38095 ft 418 kts 354°
2026-05-07 01:31 42.82718 -121.79683 38090 ft 418 kts 354°
2026-05-07 01:31 42.88525 -121.80280 38086 ft 418 kts 354°
2026-05-07 01:32 42.94329 -121.80878 38099 ft 418 kts 354°
2026-05-07 01:32 43.00070 -121.81470 38088 ft 416 kts 354°
2026-05-07 01:33 43.05845 -121.82067 38092 ft 416 kts 354°
2026-05-07 01:33 43.11621 -121.82666 38094 ft 416 kts 354°
2026-05-07 01:34 43.17398 -121.83265 38092 ft 416 kts 355°
2026-05-07 01:34 43.23176 -121.83866 38094 ft 416 kts 355°
2026-05-07 01:35 43.28952 -121.84468 38096 ft 416 kts 355°
2026-05-07 01:35 43.34717 -121.85070 38091 ft 415 kts 355°
2026-05-07 01:36 43.40465 -121.85671 38103 ft 414 kts 355°
2026-05-07 01:36 43.46171 -121.86269 38093 ft 414 kts 355°
2026-05-07 01:37 43.51921 -121.86872 38126 ft 415 kts 355°
2026-05-07 01:37 43.57671 -121.87476 38117 ft 414 kts 354°
2026-05-07 01:38 43.63417 -121.88082 38114 ft 414 kts 354°
2026-05-07 01:38 43.69138 -121.88686 38125 ft 414 kts 354°
2026-05-07 01:39 43.74874 -121.89294 38118 ft 412 kts 354°
2026-05-07 01:39 43.80595 -121.89900 38127 ft 412 kts 354°
2026-05-07 01:40 43.86320 -121.90508 38130 ft 412 kts 354°
2026-05-07 01:40 43.92042 -121.91116 38129 ft 412 kts 354°
2026-05-07 01:41 43.97725 -121.91722 38137 ft 412 kts 353°
2026-05-07 01:41 44.03442 -121.92333 38136 ft 412 kts 353°
2026-05-07 01:42 44.09157 -121.92944 38123 ft 411 kts 353°
2026-05-07 01:42 44.14855 -121.93555 38151 ft 411 kts 353°
2026-05-07 01:43 44.20565 -121.94169 38120 ft 411 kts 353°
2026-05-07 01:43 44.26259 -121.94782 38148 ft 410 kts 353°
2026-05-07 01:44 44.31953 -121.95396 38141 ft 410 kts 353°
2026-05-07 01:44 44.37651 -121.96011 38121 ft 410 kts 353°
2026-05-07 01:45 44.43347 -121.96628 38133 ft 410 kts 353°
2026-05-07 01:45 44.49035 -121.97245 38140 ft 410 kts 353°
2026-05-07 01:46 44.54684 -121.97859 38127 ft 410 kts 353°
2026-05-07 01:46 44.60369 -121.98480 38141 ft 410 kts 353°
2026-05-07 01:47 44.66048 -121.99098 38121 ft 408 kts 352°
2026-05-07 01:47 44.71724 -121.99719 38139 ft 410 kts 352°
2026-05-07 01:48 44.77412 -122.00342 38160 ft 410 kts 352°
2026-05-07 01:48 44.83095 -122.00965 38157 ft 409 kts 352°
2026-05-07 01:49 44.87809 -122.01484 38157 ft 407 kts 352°
2026-05-07 01:49 44.94392 -122.02208 38159 ft 407 kts 352°
2026-05-07 01:50 44.99130 -122.02732 38139 ft 407 kts 352°
2026-05-07 01:50 45.04742 -122.03353 38159 ft 407 kts 352°
2026-05-07 01:51 45.10393 -122.03979 38159 ft 407 kts 352°
2026-05-07 01:51 45.16056 -122.04608 38163 ft 407 kts 352°
2026-05-07 01:52 45.21703 -122.05238 38114 ft 407 kts 352°
2026-05-07 01:52 45.27374 -122.05869 38139 ft 409 kts 352°
2026-05-07 01:53 45.33061 -122.06503 38169 ft 411 kts 352°
2026-05-07 01:53 45.38759 -122.07141 38160 ft 410 kts 352°
2026-05-07 01:54 45.44450 -122.07779 38170 ft 411 kts 352°
2026-05-07 01:54 45.50116 -122.08417 38151 ft 412 kts 352°
2026-05-07 01:55 45.55852 -122.09063 38178 ft 414 kts 352°
2026-05-07 01:55 45.61582 -122.09709 38147 ft 413 kts 352°
2026-05-07 01:56 45.67306 -122.10355 38166 ft 411 kts 352°
2026-05-07 01:56 45.72992 -122.11000 38159 ft 412 kts 352°
2026-05-07 01:57 45.78722 -122.11651 38160 ft 413 kts 352°
2026-05-07 01:57 45.84449 -122.12303 38161 ft 412 kts 352°
2026-05-07 01:58 45.90172 -122.12955 38169 ft 412 kts 352°
2026-05-07 01:58 45.95894 -122.13609 38168 ft 413 kts 352°
2026-05-07 01:59 46.01597 -122.14261 38207 ft 414 kts 352°
2026-05-07 01:59 46.07342 -122.14920 38164 ft 412 kts 352°
2026-05-07 02:00 46.13045 -122.15577 38179 ft 412 kts 352°
2026-05-07 02:00 46.18754 -122.16233 38138 ft 412 kts 351°
2026-05-07 02:01 46.24466 -122.16892 38226 ft 412 kts 351°
2026-05-07 02:01 46.30202 -122.17558 38192 ft 414 kts 351°
2026-05-07 02:02 46.35924 -122.18220 38188 ft 412 kts 351°
2026-05-07 02:02 46.41653 -122.18885 38164 ft 413 kts 351°
2026-05-07 02:03 46.47334 -122.19547 38170 ft 413 kts 351°
2026-05-07 02:03 46.53050 -122.20214 38174 ft 411 kts 351°
2026-05-07 02:04 46.58761 -122.20881 38183 ft 411 kts 351°
2026-05-07 02:04 46.64475 -122.21551 38169 ft 411 kts 351°
2026-05-07 02:05 46.70180 -122.22220 38189 ft 413 kts 351°
2026-05-07 02:05 46.75878 -122.22891 38196 ft 411 kts 351°
2026-05-07 02:06 46.81576 -122.23563 38205 ft 411 kts 351°
2026-05-07 02:06 46.87270 -122.24236 38211 ft 410 kts 350°
2026-05-07 02:07 46.92956 -122.24909 38207 ft 409 kts 350°
2026-05-07 02:07 47.01477 -122.25920 38199 ft 409 kts 350°
2026-05-07 02:08 47.07158 -122.26596 38215 ft 409 kts 350°
2026-05-07 02:08 47.12838 -122.27273 38195 ft 409 kts 350°
2026-05-07 02:09 47.18506 -122.27950 38194 ft 409 kts 350°
2026-05-07 02:09 47.24150 -122.28626 38197 ft 409 kts 350°
2026-05-07 02:10 47.29811 -122.29306 38222 ft 409 kts 350°
2026-05-07 02:10 47.35500 -122.29989 38199 ft 407 kts 349°
2026-05-07 02:11 47.41146 -122.30670 38202 ft 407 kts 349°
2026-05-07 02:11 47.46807 -122.30714 38216 ft 412 kts 356°
2026-05-07 02:12 47.52548 -122.30365 38181 ft 412 kts 356°
2026-05-07 02:12 47.55413 -122.30182 38023 ft 412 kts 356°
2026-05-07 02:12 47.58282 -122.29997 37768 ft 411 kts 356°
2026-05-07 02:13 47.61142 -122.29811 37528 ft 412 kts 356°
2026-05-07 02:13 47.63997 -122.29624 36948 ft 410 kts 356°
2026-05-07 02:13 47.66885 -122.29435 35894 ft 419 kts 356°
2026-05-07 02:13 47.69802 -122.29244 35004 ft 424 kts 356°
2026-05-07 02:14 47.72754 -122.29049 34268 ft 425 kts 356°
2026-05-07 02:14 47.75708 -122.28855 33487 ft 425 kts 356°
2026-05-07 02:14 47.78663 -122.28660 32665 ft 426 kts 356°
2026-05-07 02:14 47.81637 -122.28464 31842 ft 428 kts 356°
2026-05-07 02:15 47.84622 -122.28267 30955 ft 430 kts 356°
2026-05-07 02:15 47.87624 -122.28069 30024 ft 434 kts 357°
2026-05-07 02:15 47.90650 -122.27874 29064 ft 435 kts 356°
2026-05-07 02:15 47.93611 -122.28296 28243 ft 424 kts 343°
2026-05-07 02:16 47.96490 -122.29132 27693 ft 419 kts 345°
2026-05-07 02:16 47.99302 -122.29909 27067 ft 414 kts 345°
2026-05-07 02:16 48.02123 -122.30712 26406 ft 412 kts 345°
2026-05-07 02:16 48.04947 -122.31525 25728 ft 415 kts 345°
2026-05-07 02:17 48.07792 -122.32347 25058 ft 416 kts 345°
2026-05-07 02:17 48.10621 -122.33166 24422 ft 413 kts 345°
2026-05-07 02:17 48.13440 -122.33985 23738 ft 412 kts 345°
2026-05-07 02:17 48.16250 -122.34801 22966 ft 411 kts 345°
2026-05-07 02:18 48.19033 -122.35611 22291 ft 408 kts 345°
2026-05-07 02:18 48.21808 -122.36415 21681 ft 403 kts 345°
2026-05-07 02:18 48.24525 -122.37185 21480 ft 392 kts 345°
2026-05-07 02:18 48.27239 -122.37990 20430 ft 401 kts 345°
2026-05-07 02:19 48.29956 -122.38789 19673 ft 403 kts 345°
2026-05-07 02:19 48.32734 -122.39604 19070 ft 400 kts 345°
2026-05-07 02:19 48.35419 -122.40391 18474 ft 397 kts 345°
2026-05-07 02:19 48.38121 -122.41185 17790 ft 394 kts 345°
2026-05-07 02:20 48.40812 -122.41975 17059 ft 394 kts 345°
2026-05-07 02:20 48.43478 -122.42759 16449 ft 391 kts 345°
2026-05-07 02:20 48.46140 -122.43543 15855 ft 387 kts 345°
2026-05-07 02:20 48.48783 -122.44322 15286 ft 384 kts 345°
2026-05-07 02:21 48.51374 -122.45085 14742 ft 373 kts 345°
2026-05-07 02:21 48.53889 -122.45828 14195 ft 362 kts 345°
2026-05-07 02:21 48.56292 -122.46538 13593 ft 352 kts 345°
2026-05-07 02:21 48.58663 -122.47238 13092 ft 342 kts 345°
2026-05-07 02:22 48.60999 -122.47930 12688 ft 346 kts 345°
2026-05-07 02:22 48.63327 -122.48619 12483 ft 336 kts 345°
2026-05-07 02:22 48.65583 -122.49288 12325 ft 325 kts 345°
2026-05-07 02:22 48.67764 -122.49935 12146 ft 316 kts 345°
2026-05-07 02:23 48.69905 -122.50631 12039 ft 314 kts 338°
2026-05-07 02:23 48.71774 -122.52242 11991 ft 309 kts 316°
2026-05-07 02:23 48.73317 -122.54528 12006 ft 310 kts 313°
2026-05-07 02:23 48.74840 -122.56843 12014 ft 310 kts 313°
2026-05-07 02:24 48.76354 -122.59181 12006 ft 310 kts 312°
2026-05-07 02:24 48.77859 -122.61530 12004 ft 310 kts 312°
2026-05-07 02:24 48.79358 -122.63886 12014 ft 310 kts 312°
2026-05-07 02:24 48.80838 -122.66221 12003 ft 310 kts 312°
2026-05-07 02:25 48.82333 -122.68586 12005 ft 310 kts 312°
2026-05-07 02:25 48.83814 -122.70934 12008 ft 301 kts 311°
2026-05-07 02:25 48.85227 -122.73175 12006 ft 287 kts 311°
2026-05-07 02:25 48.86567 -122.75303 12030 ft 272 kts 311°
2026-05-07 02:26 48.87844 -122.77331 12020 ft 259 kts 311°
2026-05-07 02:26 48.89068 -122.79279 12027 ft 252 kts 311°
2026-05-07 02:26 48.90281 -122.81208 11981 ft 251 kts 311°
2026-05-07 02:26 48.91493 -122.83140 11762 ft 252 kts 311°
2026-05-07 02:27 48.92702 -122.85068 11525 ft 252 kts 311°
2026-05-07 02:27 48.93912 -122.86999 11290 ft 252 kts 311°
2026-05-07 02:27 48.95121 -122.88929 11052 ft 252 kts 311°
2026-05-07 02:27 48.96332 -122.90862 10814 ft 252 kts 311°
2026-05-07 02:28 48.97535 -122.92787 10399 ft 257 kts 311°
2026-05-07 02:28 48.98782 -122.94783 9891 ft 264 kts 311°
2026-05-07 02:28 49.00062 -122.96832 9343 ft 270 kts 311°
2026-05-07 02:28 49.01367 -122.98922 8889 ft 273 kts 311°
2026-05-07 02:29 49.02672 -123.01015 8544 ft 271 kts 311°
2026-05-07 02:29 49.03957 -123.03079 8252 ft 268 kts 311°
2026-05-07 02:29 49.05224 -123.05137 8008 ft 263 kts 308°
2026-05-07 02:29 49.06109 -123.07523 7752 ft 256 kts 293°
2026-05-07 02:30 49.06823 -123.09987 7520 ft 252 kts 294°
2026-05-07 02:30 49.07532 -123.12410 7303 ft 247 kts 294°
2026-05-07 02:30 49.08227 -123.14787 7077 ft 244 kts 294°
2026-05-07 02:30 49.08911 -123.17130 6856 ft 240 kts 294°
2026-05-07 02:31 49.09545 -123.19456 6636 ft 236 kts 286°
2026-05-07 02:31 49.09857 -123.21893 6398 ft 233 kts 280°
2026-05-07 02:31 49.10124 -123.24306 6177 ft 228 kts 281°
2026-05-07 02:31 49.10388 -123.26663 6038 ft 221 kts 281°
2026-05-07 02:32 49.10643 -123.28934 5894 ft 214 kts 281°
2026-05-07 02:32 49.10892 -123.31147 5768 ft 215 kts 281°
2026-05-07 02:32 49.11146 -123.33398 5656 ft 215 kts 281°
2026-05-07 02:32 49.11400 -123.35653 5532 ft 215 kts 281°
2026-05-07 02:33 49.11652 -123.37896 5407 ft 215 kts 281°
2026-05-07 02:33 49.11904 -123.40141 5284 ft 214 kts 281°
2026-05-07 02:33 49.12155 -123.42382 5153 ft 214 kts 281°
2026-05-07 02:33 49.12403 -123.44595 5040 ft 213 kts 281°
2026-05-07 02:34 49.12841 -123.46735 4893 ft 211 kts 304°
2026-05-07 02:34 49.13936 -123.48192 4743 ft 212 kts 331°
2026-05-07 02:34 49.15295 -123.49107 4670 ft 213 kts 335°
2026-05-07 02:34 49.16651 -123.49957 4573 ft 205 kts 335°
2026-05-07 02:35 49.17934 -123.50759 4426 ft 194 kts 335°
2026-05-07 02:35 49.19161 -123.51528 4230 ft 188 kts 336°
2026-05-07 02:35 49.20352 -123.52288 4017 ft 182 kts 335°
2026-05-07 02:35 49.21555 -123.52707 3824 ft 178 kts
2026-05-07 02:36 49.22661 -123.51982 3651 ft 174 kts 41°
2026-05-07 02:36 49.23230 -123.50381 3597 ft 176 kts 75°
2026-05-07 02:36 49.23426 -123.48511 3621 ft 180 kts 84°
2026-05-07 02:36 49.23434 -123.46605 3477 ft 182 kts 93°
2026-05-07 02:37 49.23294 -123.44688 3242 ft 181 kts 97°
2026-05-07 02:37 49.23097 -123.42793 3018 ft 177 kts 98°
2026-05-07 02:37 49.22892 -123.40995 2800 ft 164 kts 98°
2026-05-07 02:37 49.22766 -123.39886 2644 ft 157 kts 98°
2026-05-07 02:38 49.22582 -123.38268 2445 ft 152 kts 99°
2026-05-07 02:38 49.22404 -123.36696 2260 ft 149 kts 99°
2026-05-07 02:38 49.22228 -123.35147 2044 ft 147 kts 100°
2026-05-07 02:38 49.21998 -123.33110 1757 ft 145 kts 100°
2026-05-07 02:39 49.21826 -123.31609 1557 ft 142 kts 101°
2026-05-07 02:39 49.21711 -123.30611 1419 ft 141 kts 101°
2026-05-07 02:39 49.21542 -123.29122 1241 ft 142 kts 101°
2026-05-07 02:39 49.21376 -123.27635 1053 ft 141 kts 101°
2026-05-07 02:40 49.21206 -123.26150 831 ft 142 kts 102°
2026-05-07 02:40 49.21037 -123.24692 666 ft 140 kts 100°
2026-05-07 02:40 49.20874 -123.23217 470 ft 141 kts 99°
2026-05-07 02:40 49.20709 -123.21755 299 ft 136 kts 100°
2026-05-07 02:41 49.20553 -123.20351 119 ft 134 kts 100°
2026-05-07 02:41 49.20394 -123.18995 26 ft 120 kts 101°
2026-05-07 02:41 49.20284 -123.18038 19 ft 57 kts 99°
2026-05-07 02:41 49.20164 -123.17589 19 ft 28 kts 128°
2026-05-07 02:42 49.20081 -123.17436 19 ft 12 kts 129°
2026-05-07 02:42 49.20057 -123.17394 21 ft 0 kts 130°
2026-05-07 02:43 49.20055 -123.17389 21 ft 2 kts 130°
2026-05-07 02:44 49.20041 -123.17365 19 ft 4 kts 133°
2026-05-07 02:44 49.20005 -123.17345 21 ft 6 kts 185°
2026-05-07 02:44 49.19985 -123.17352 19 ft 3 kts 195°
2026-05-07 02:44 49.19958 -123.17361 19 ft 5 kts 186°
2026-05-07 02:45 49.19923 -123.17338 20 ft 7 kts 124°
2026-05-07 02:45 49.19894 -123.17269 19 ft 9 kts 144°
2026-05-07 02:45 49.19846 -123.17278 19 ft 4 kts 227°
2026-05-07 02:45 49.19837 -123.17316 19 ft 4 kts 259°
2026-05-07 02:46 49.19835 -123.17333 19 ft 1 kts 256°
2026-05-07 02:46 49.19834 -123.17339 19 ft 1 kts 253°
2026-05-07 02:46 49.19834 -123.17342 19 ft 0 kts 253°